Weather History for Lovelock, NV

Change the Weather History Date:

Friday, March 21, 2014

  Actual Average Record
Temperature  
Mean Temperature 46 °F -  
Max Temperature 60 °F 61 °F 80 °F (2004)
Min Temperature 34 °F 29 °F 5 °F (1955)
Degree Days  
Heating Degree Days 18    
Moisture  
Dew Point 12 °F    
Average Humidity 25    
Maximum Humidity 37    
Minimum Humidity 14    
Precipitation  
Precipitation 0.00 in - - ()
Sea Level Pressure  
Sea Level Pressure 29.98 in    
Wind  
Wind Speed 9 mph (North)    
Max Wind Speed 20 mph    
Max Gust Speed -    
Visibility 10 miles    
Events      
Averages and records for this station are not official NWS values.
T = Trace of Precipitation, MM = Missing Value Source: NWS Daily Summary

Daily Weather History Graph

Daily Weather History Graph

Search for Another Location

Airport:

Trip Planner

Search our weather history database for the weather conditions in past years. The results will help you decide how hot, cold, wet, or windy it might be!

Date:

Astronomy

Mar. 21, 2014 Rise Set
Actual Time 6:55 AM PDT 7:07 PM PDT
Civil Twilight 6:28 AM PDT 7:34 PM PDT
Nautical Twilight 5:57 AM PDT 8:06 PM PDT
Astronomical Twilight 5:24 AM PDT 8:38 PM PDT
Moon No Moon Rise 9:51 AM PDT (3/21)
Length of Visible Light 13h 05m
Length of Day
12h 11m
Waning Gibbous, 74% of the Moon is Illuminated
Mar 21
Waning Gibbous
Mar 23
Last Quarter
Mar 30
New
Apr 7
First Quarter
Apr 15
Full

Hourly Weather History & Observations

Time (PDT) Temp. Windchill Dew Point Humidity Pressure Visibility Wind Dir Wind Speed Gust Speed Precip Events Conditions
12:53 AM 45.0 °F 42.6 °F 10.0 °F 24% 29.99 in 10.0 mi North 4.6 mph - N/A   Clear
1:53 AM 42.1 °F 36.1 °F 12.9 °F 31% 29.99 in 10.0 mi North 10.4 mph - N/A   Clear
2:53 AM 42.1 °F 36.1 °F 15.1 °F 34% 29.99 in 10.0 mi NNE 10.4 mph - N/A   Clear
3:53 AM 39.0 °F 33.4 °F 12.9 °F 34% 29.99 in 10.0 mi NNE 8.1 mph - N/A   Clear
4:53 AM 37.0 °F 29.8 °F 10.9 °F 34% 29.99 in 10.0 mi North 10.4 mph - N/A   Clear
5:53 AM 36.0 °F 27.5 °F 10.0 °F 34% 30.01 in 10.0 mi NNE 12.7 mph - N/A   Clear
6:53 AM 34.0 °F 24.6 °F 10.0 °F 37% 30.03 in 10.0 mi NE 13.8 mph - N/A   Clear
7:53 AM 36.0 °F 26.7 °F 10.9 °F 36% 30.05 in 10.0 mi NNE 15.0 mph - N/A   Clear
8:53 AM 39.9 °F 32.1 °F 12.0 °F 32% 30.06 in 10.0 mi NNE 13.8 mph - N/A   Clear
9:53 AM 44.1 °F 36.5 °F 12.0 °F 27% 30.05 in 10.0 mi NNE 17.3 mph - N/A   Clear
10:53 AM 46.9 °F - 10.9 °F 23% 30.04 in 10.0 mi NE 15.0 mph - N/A   Clear
11:53 AM 50.0 °F - 10.9 °F 21% 30.03 in 10.0 mi Variable 6.9 mph - N/A   Clear
12:53 PM 52.0 °F - 8.1 °F 17% 30.00 in 10.0 mi Calm Calm - N/A   Partly Cloudy
1:53 PM 55.9 °F - 10.0 °F 16% 29.97 in 10.0 mi Calm Calm - N/A   Clear
2:53 PM 57.0 °F - 10.0 °F 15% 29.93 in 10.0 mi West 4.6 mph - N/A   Clear
3:53 PM 59.0 °F - 10.0 °F 14% 29.92 in 10.0 mi WNW 5.8 mph - N/A   Clear
4:53 PM 59.0 °F - 10.9 °F 15% 29.90 in 10.0 mi Variable 3.5 mph - N/A   Clear
5:53 PM 57.9 °F - 12.0 °F 16% 29.90 in 10.0 mi South 8.1 mph - N/A   Clear
6:53 PM 53.1 °F - 12.9 °F 20% 29.92 in 10.0 mi SSW 6.9 mph - N/A   Clear
7:53 PM 46.9 °F - 12.0 °F 24% 29.93 in 10.0 mi South 8.1 mph - N/A   Scattered Clouds
8:53 PM 46.0 °F 42.5 °F 16.0 °F 30% 29.95 in 10.0 mi West 6.9 mph - N/A   Overcast
9:53 PM 50.0 °F - 14.0 °F 24% 29.95 in 10.0 mi SW 4.6 mph - N/A   Mostly Cloudy
10:53 PM 48.0 °F - 14.0 °F 26% 29.97 in 10.0 mi NE 19.6 mph - N/A   Partly Cloudy
11:53 PM 45.0 °F 38.5 °F 10.9 °F 25% 29.99 in 10.0 mi NNE 13.8 mph - N/A   Clear